User: anonymous   Login
Location: Landeleau
(48.2273°N, 3.7285°W)
Time: 09:44:58
(UTC+00:00)
Language:

Cosmos 1805 - Orbit

View from above orbital plane
View from above orbital plane
View from above satellite
View from above satellite

Ground track
Ground track

The orbit data is extracted from the following two-line orbital elements,

1 17191U 86097A   21167.89852438  .00001025  00000-0  56295-4 0  9992
2 17191  82.4740  29.4210 0006388  83.9506 276.2453 15.13018676884131
Epoch (UTC): 16 June 2021 21:33:52
Eccentricity: 0.0006388
inclination: 82.4740°
perigee height: 522 km
apogee height: 531 km
right ascension of ascending node: 29.4210°
argument of perigee: 83.9506°
revolutions per day: 15.13018676
mean anomaly at epoch: 276.2453°
orbit number at epoch: 88413

The dashed part of the orbit path shows where the satellite is in the earth's shadow,  

DLR